[[{"header":{"parameterUnit":"m.s-1","parameterCategory":1,"la1":30.2991,"la2":30.254,"lo1":-89.0895,"lo2":-89.0444,"dy":0.0017,"dx":0.0017,"nx":28,"ny":28,"refTime":"2025-06-15T09:00:00:Z","depth":0,"parameterNumber":2,"parameterNumberName":"U-component_of_WINDS"},"data":[0,0,0,0,0,0,0,0,0,0,0,0,0,0,0,0,0,0,0,0,0,0,0,0,0,0,0,0,0,0,0,0,0,0,0,0,0,0,0,0,0,0,0,0,0,0,0,0,0,0,0,0,0,0,0,0,0,0,2.4796,2.4796,0,2.487,2.4871,2.4872,2.485,2.4849,2.4847,2.4846,2.492,2.4924,2.4927,0,0,0,0,0,0,0,0,0,0,0,0,0,2.463,2.4633,2.4795,2.4796,2.4797,2.487,2.4871,2.4872,2.4851,2.4849,2.4847,2.4845,2.4919,2.4923,2.4927,0,0,0,0,0,0,0,0,0,0,0,0,0,2.4703,2.4634,2.4795,2.4796,2.4796,2.487,2.4871,2.4872,2.4851,2.4849,2.4847,2.4844,2.4918,2.4923,2.4928,2.5005,0,0,2.4943,2.4946,0,0,0,0,0,0,0,0,2.4699,2.4709,2.4795,2.4796,2.4797,2.4849,2.484,2.4917,2.4852,2.483,2.4846,2.4843,2.4898,2.4905,2.4924,2.5009,2.5012,2.4944,2.4947,2.4949,2.4951,0,0,0,0,0,0,0,2.4694,2.4706,2.4825,2.4796,2.4797,2.479,2.4798,2.4854,2.4876,2.4832,2.4831,2.484,2.4898,2.4919,2.4925,2.5013,2.4944,2.4948,2.4951,2.4953,2.5161,2.5163,0,0,0,0,0,0,2.4689,2.4702,2.4823,2.4827,2.4741,2.4795,2.4804,2.4834,2.4875,2.488,2.4842,2.4839,2.4911,2.4919,2.4928,2.5018,2.4949,2.4954,2.4957,2.5158,2.5161,2.5164,0,0,0,0,0,0,2.4685,2.47,2.482,2.4764,2.4779,2.4801,2.4835,2.4837,2.4857,2.4883,2.4886,2.4859,2.491,2.4921,2.4985,2.502,2.4956,2.4961,2.5155,2.5159,2.5162,2.5201,0,0,0,0,0,0,2.4681,2.4699,2.4729,2.4765,2.4782,2.4877,2.4837,2.484,2.4867,2.4863,2.49,2.4904,2.4909,2.4978,2.499,2.5026,2.4965,2.5152,2.5157,2.5161,2.5196,2.5205,2.5213,0,0,0,0,0,2.4675,2.4737,2.4731,2.4746,2.4821,2.4879,2.4889,2.4894,2.487,2.4899,2.4915,2.4903,2.5015,2.4985,2.4999,2.5036,2.515,2.5156,2.5161,2.5193,2.5203,2.5213,0,0,0,0,0,0,2.4705,2.4742,2.4735,2.4812,2.4843,2.4876,2.4914,2.4906,2.4944,2.4939,2.4943,2.4951,2.5017,2.5033,2.4999,2.5111,2.5079,2.5087,2.5098,2.5108,2.5116,2.511,2.4969,0,0,0,0,0,2.4721,2.4766,2.4796,2.486,2.4876,2.4892,2.4918,2.4919,2.4951,2.4963,2.4984,2.5014,2.5056,2.5084,2.5124,2.5199,2.5205,2.5232,2.524,2.5247,2.5253,2.5291,2.5302,2.5182,2.5182,2.5182,0,0,2.4753,2.4779,2.4808,2.4867,2.4891,2.4935,2.4903,2.4953,2.4986,2.4971,2.5032,2.5048,2.5082,2.5152,2.5183,2.5168,2.5288,2.5254,2.5259,2.5262,2.5298,2.5309,2.5319,2.5186,2.5185,2.5184,0,0,2.4835,2.4861,2.4915,2.494,2.4976,2.4986,2.4999,2.5033,2.5043,2.5105,2.5094,2.5132,2.5205,2.5229,2.525,2.5339,2.5327,2.5352,2.5394,2.543,2.544,2.5448,2.5476,2.5487,2.5359,2.5359,2.5359,0,2.487,2.4939,2.4944,2.4994,2.5019,2.5008,2.5062,2.5085,2.5133,2.5149,2.5131,2.522,2.5243,2.5316,2.5337,2.5356,2.5369,2.5347,2.5438,2.5447,2.5454,2.5481,2.5493,2.5361,2.5361,2.5361,2.536,0,2.4979,2.5026,2.5066,2.5112,2.5141,2.5193,2.5205,2.5234,2.5232,2.5243,2.5305,2.5331,2.5375,2.5393,2.5392,2.5465,2.5454,2.5437,2.5404,2.5468,2.5494,2.5504,2.5365,2.5364,2.5363,2.5363,0,0,2.5082,2.5129,2.5143,2.5162,2.5201,2.5236,2.5287,2.5329,2.5353,2.5386,2.5426,2.5487,2.5471,2.5495,2.5497,2.5529,2.5593,2.5508,2.5509,2.5521,2.5672,2.5682,2.5694,2.5587,2.5589,2.5591,2.5668,0,2.5164,2.5253,2.5258,2.5338,2.538,2.5369,2.5412,2.5439,2.5451,2.5487,2.55,2.5541,2.5519,2.5533,2.5565,2.5579,2.5623,2.5574,2.5622,2.5623,2.5611,2.5708,2.5719,2.5791,2.5678,2.568,2.5681,0,2.5273,2.5308,2.5392,2.5422,2.5439,2.5478,2.5516,2.5552,2.5581,2.5587,2.5614,2.561,2.5659,2.5625,2.5691,2.5657,2.5677,2.5687,2.569,2.5693,2.5654,2.571,2.5814,2.5824,2.5697,2.5696,2.5695,0,2.5335,2.5404,2.5462,2.5479,2.5516,2.5543,2.556,2.5587,2.5612,2.5645,2.566,2.5699,2.5719,2.5748,2.5754,2.573,2.5819,2.5787,2.5823,2.5823,2.5841,2.5839,2.5947,2.5858,2.5858,2.5858,2.5858,0,2.5425,2.5476,2.549,2.5526,2.5581,2.5586,2.5641,2.5655,2.568,2.5716,2.571,2.5744,2.5751,2.5786,2.5791,2.5843,2.5853,2.5857,2.5857,2.5856,2.5855,2.5868,2.5862,2.5861,2.586,2.586,2.5859,0,2.5503,2.5515,2.5577,2.5607,2.5616,2.5655,2.568,2.5713,2.5723,2.5769,2.578,2.5796,2.5837,2.5846,2.5895,2.5898,2.5959,2.5956,2.5949,2.5947,2.5982,2.5978,2.6099,2.6114,2.6019,2.602,2.602,0,2.5559,2.5597,2.5631,2.5655,2.5673,2.5712,2.5737,2.5743,2.5768,2.5803,2.5831,2.5871,2.5903,2.5969,2.5984,2.602,2.6016,2.6056,2.6021,2.6018,2.6013,2.6009,2.6012,2.6062,2.6063,2.6064,2.6065,0,2.5655,2.5658,2.5694,2.5732,2.5761,2.5791,2.5819,2.5839,2.5849,2.5877,2.5919,2.5944,2.5993,2.6031,2.6068,2.6083,2.6074,2.6076,2.6085,2.6083,2.6076,2.6077,2.5964,2.6072,2.6072,2.6071,2.6071,2.607,2.5721,2.5754,2.5781,2.5821,2.5843,2.5869,2.5901,2.5915,2.595,2.599,2.5991,2.6036,2.6062,2.6109,2.6127,2.616,2.6148,2.6163,2.6166,2.6169,2.617,2.6073,2.6167,2.6167,2.6167,2.6167,2.6167,0,2.5814,2.5831,2.5867,2.5907,2.5937,2.5928,2.5958,2.5983,2.6023,2.6048,2.608,2.6126,2.6163,2.6181,2.6217,2.624,2.6237,2.6249,2.6246,2.6249,2.6181,2.6168,2.6251,2.6251,2.6251,2.6251,2.6251,2.6251,2.5865,2.5919,2.5925,2.5989,2.6005,2.6049,2.6067,2.609,2.611,2.6162,2.6192,2.6204,2.6225,2.6263,2.6295,2.6299,2.6312,2.6325,2.6327,2.6263,2.6254,2.6246,2.6233,2.6329,2.6329,2.6392,2.6392,2.6393]},{"header":{"parameterUnit":"m.s-1","parameterCategory":1,"la1":30.2991,"la2":30.254,"lo1":-89.0895,"lo2":-89.0444,"dy":0.0017,"dx":0.0017,"nx":28,"ny":28,"refTime":"2025-06-15T09:00:00:Z","depth":0,"parameterNumber":3,"parameterNumberName":"V-component_of_WINDS"},"data":[0,0,0,0,0,0,0,0,0,0,0,0,0,0,0,0,0,0,0,0,0,0,0,0,0,0,0,0,0,0,0,0,0,0,0,0,0,0,0,0,0,0,0,0,0,0,0,0,0,0,0,0,0,0,0,0,0,0,5.0627,5.0628,0,5.0757,5.0758,5.0759,5.0733,5.0731,5.0728,5.0726,5.0852,5.0857,5.0863,0,0,0,0,0,0,0,0,0,0,0,0,0,5.0347,5.0353,5.0627,5.0628,5.063,5.0756,5.0758,5.076,5.0734,5.0731,5.0728,5.0725,5.085,5.0857,5.0863,0,0,0,0,0,0,0,0,0,0,0,0,0,5.0472,5.0354,5.0626,5.0632,5.0634,5.0756,5.0758,5.076,5.0734,5.0731,5.0727,5.0724,5.0848,5.0856,5.0864,5.0986,0,0,5.089,5.0893,0,0,0,0,0,0,0,0,5.0465,5.0482,5.063,5.0632,5.0634,5.0725,5.0706,5.0836,5.0735,5.0696,5.0726,5.0722,5.0812,5.0823,5.0855,5.0992,5.0997,5.089,5.0895,5.0899,5.0901,0,0,0,0,0,0,0,5.0456,5.0476,5.0678,5.0632,5.0635,5.0625,5.0639,5.073,5.0772,5.0699,5.0698,5.0714,5.0813,5.0847,5.0858,5.0999,5.089,5.0897,5.0903,5.0906,5.1239,5.1243,0,0,0,0,0,0,5.0447,5.0469,5.0674,5.0682,5.0539,5.0633,5.0649,5.0699,5.0771,5.0779,5.0717,5.0712,5.0835,5.0848,5.0862,5.1008,5.0899,5.0907,5.0911,5.1236,5.124,5.1244,0,0,0,0,0,0,5.0441,5.0465,5.0668,5.0575,5.06,5.0642,5.0699,5.0704,5.0738,5.0784,5.0791,5.0745,5.0832,5.085,5.0955,5.1012,5.091,5.0918,5.1231,5.1237,5.1242,5.1301,0,0,0,0,0,0,5.0433,5.0463,5.0512,5.0577,5.0606,5.0762,5.0703,5.0709,5.0754,5.0749,5.0812,5.0819,5.0831,5.0943,5.0964,5.1021,5.0924,5.1226,5.1234,5.1241,5.1294,5.1308,5.132,0,0,0,0,0,5.0423,5.0522,5.0515,5.054,5.0668,5.0766,5.0782,5.0795,5.0758,5.0806,5.0835,5.0817,5.1003,5.0954,5.0977,5.1038,5.1223,5.1232,5.124,5.1288,5.1305,5.132,0,0,0,0,0,0,5.0461,5.0531,5.0523,5.0647,5.0701,5.0761,5.0822,5.0813,5.0877,5.0869,5.0881,5.0895,5.1002,5.103,5.0975,5.1158,5.1107,5.1121,5.1136,5.1152,5.1165,5.1155,5.0931,0,0,0,0,0,5.0485,5.0561,5.0617,5.072,5.0748,5.0781,5.0823,5.0829,5.0884,5.0906,5.0943,5.0995,5.1064,5.111,5.1177,5.1298,5.131,5.1351,5.1364,5.1375,5.1386,5.1449,5.1468,5.1273,5.1273,5.1273,0,0,5.0533,5.058,5.0627,5.0729,5.0771,5.0847,5.08,5.0882,5.0937,5.0918,5.102,5.1048,5.1107,5.122,5.1271,5.1247,5.1442,5.1386,5.1394,5.1399,5.146,5.1479,5.1495,5.1279,5.1278,5.1277,0,0,5.0659,5.0704,5.0794,5.0838,5.0903,5.0924,5.0945,5.1007,5.1026,5.1129,5.1115,5.1179,5.13,5.1341,5.1378,5.1518,5.1503,5.154,5.1607,5.1669,5.1684,5.1697,5.1745,5.1763,5.1551,5.1551,5.1551,0,5.071,5.0826,5.0841,5.0925,5.0969,5.0957,5.1046,5.1087,5.117,5.1199,5.1171,5.132,5.1359,5.1481,5.1515,5.1546,5.1568,5.1532,5.1681,5.1695,5.1708,5.1753,5.1772,5.1555,5.1554,5.1554,5.1554,0,5.0884,5.0965,5.1029,5.1112,5.1163,5.1249,5.1274,5.1324,5.1324,5.1347,5.145,5.1496,5.1571,5.16,5.1601,5.1721,5.1704,5.1679,5.1627,5.173,5.1773,5.1791,5.156,5.1559,5.1558,5.1557,0,0,5.1038,5.1128,5.1151,5.1187,5.1258,5.1319,5.1403,5.1478,5.1519,5.1576,5.1645,5.1747,5.1723,5.1765,5.177,5.1825,5.193,5.1793,5.1794,5.1815,5.2063,5.208,5.2101,5.1921,5.1925,5.1927,5.2057,0,5.1169,5.1321,5.1336,5.1471,5.1544,5.1532,5.1605,5.1655,5.1678,5.174,5.1765,5.1836,5.1801,5.1826,5.1879,5.1906,5.198,5.1897,5.1982,5.1985,5.1967,5.2124,5.2143,5.2264,5.2074,5.2077,5.2079,0,5.1343,5.1407,5.155,5.1608,5.1639,5.1705,5.1774,5.1836,5.189,5.1902,5.1949,5.1947,5.203,5.1976,5.2089,5.2033,5.2068,5.2086,5.2091,5.2099,5.2038,5.2133,5.2303,5.232,5.2106,5.2104,5.2102,0,5.1439,5.156,5.1661,5.1693,5.1764,5.181,5.1841,5.1893,5.1936,5.1996,5.2024,5.2091,5.2128,5.2179,5.2193,5.2153,5.2305,5.2253,5.2316,5.2315,5.2348,5.2345,5.2523,5.2373,5.2373,5.2372,5.2372,0,5.1583,5.167,5.1705,5.1767,5.1862,5.1878,5.1971,5.2,5.2045,5.211,5.2103,5.2163,5.218,5.2242,5.2254,5.2344,5.2361,5.2371,5.2373,5.2372,5.237,5.2394,5.2385,5.2377,5.2376,5.2375,5.2374,0,5.1706,5.1734,5.1842,5.1901,5.1918,5.1986,5.2034,5.2092,5.2114,5.2196,5.2215,5.2249,5.2321,5.2342,5.2428,5.2436,5.2542,5.2537,5.2524,5.2524,5.2585,5.2578,5.2783,5.281,5.2644,5.2645,5.2647,0,5.1796,5.1863,5.1929,5.1974,5.2007,5.2078,5.2123,5.2139,5.2186,5.2252,5.2301,5.2373,5.2432,5.2548,5.2578,5.2644,5.2639,5.2706,5.2648,5.2644,5.2637,5.2633,5.2638,5.2716,5.2718,5.272,5.2721,0,5.1952,5.1962,5.2028,5.2099,5.2153,5.2209,5.2262,5.2298,5.2321,5.2373,5.2448,5.2494,5.2583,5.2654,5.272,5.2748,5.2738,5.2739,5.2757,5.2755,5.2744,5.2749,5.2553,5.2734,5.2733,5.2732,5.2731,5.273,5.206,5.2118,5.2174,5.2247,5.2289,5.2339,5.2396,5.2425,5.2489,5.2564,5.2569,5.265,5.27,5.2789,5.2821,5.2882,5.2862,5.2888,5.2894,5.29,5.2905,5.2736,5.2895,5.2894,5.2894,5.2894,5.2893,0,5.2213,5.2249,5.2316,5.2392,5.2449,5.2436,5.2494,5.2542,5.2614,5.2663,5.2721,5.2806,5.2875,5.291,5.2977,5.3019,5.3016,5.3036,5.3033,5.3039,5.292,5.2897,5.3038,5.3038,5.3038,5.3038,5.3038,5.3038,5.23,5.2397,5.2413,5.253,5.2564,5.2646,5.2679,5.2724,5.2763,5.2859,5.2917,5.294,5.2983,5.3053,5.3114,5.3122,5.3146,5.3169,5.3174,5.3062,5.3048,5.3033,5.3012,5.3174,5.3175,5.3288,5.3289,5.329]}]]